Regional Weather Roundup
Issued by NWS New Orleans/Baton Rouge, LA

Home | Current Version | Previous Version | Text Only | Print | Product List | Glossary On
Versions: 1 2 3 4 5 6 7 8 9 10 11 12 13 14 15 16 17 18 19 20 21 22 23 24 25 26 27 28 29 30 31 32 33 34 35 36 37 38 39 40 41 42 43 44 45 46 47 48 49 50
000
ASUS44 KLIX 211912
RWRLIX
NEW ORLEANS REGIONAL WEATHER ROUNDUP
NATIONAL WEATHER SERVICE NEW ORLEANS LA
100 PM CST TUE NOV 21 2017

NOTE: "FAIR" INDICATES FEW OR NO CLOUDS BELOW 12,000 FEET WITH NO
      SIGNIFICANT WEATHER AND/OR OBSTRUCTIONS TO VISIBILITY.
      SKY/WX - SKY CONDITION AND SIGNIFICANT WEATHER.
      TMP - AIR TEMPERATURE.     DP    - DEWPOINT TEMPERATURE.
      RH  - RELATIVE HUMIDITY.   PRES  - PRESSURE.
      HI  - HEAT INDEX.          WCI   - WIND CHILL INDEX.

*  THESE STATIONS ARE NOT NWS OR FAA STATIONS AND ARE NOT UNDER
   NWS QUALITY CONTROL.

LAZ038-040-048-061>063-065>067-069-212000-
SOUTHEAST LOUISIANA

CITY           SKY/WX    TMP DP  RH WIND       PRES   REMARKS
N.O. INTL ARPT PTSUNNY   72  59  63 N5        29.96F
N.O. LAKEFRONT PTSUNNY   70  59  68 NE7       29.98F
N.O. DOWNTOWN* MOCLDY    73  56  54 CALM      29.98F
RESERVE*       CLOUDY    73  55  52 NE6       29.96F
SLIDELL        MOSUNNY   71  54  54 MISG      29.98F
BATON ROUGE    CLOUDY    66  53  63 NE8       29.96F
BOOTHVILLE     MOSUNNY   73  62  68 NE8       29.96F
BELLE CHASSE   PTSUNNY   71  58  63 VRB3      29.97F
BOGALUSA*      NOT AVBL
GALLIANO*      CLOUDY    73  55  52 SE7       29.96F
NEW ROADS*     MOCLDY    63  52  67 CALM      29.97F
GONZALES*      MOCLDY    69  54  57 E6        29.95F
HAMMOND*       MOSUNNY   70  54  56 S3        29.97F
HOUMA*         CLOUDY    72  57  60 SE7       29.96F
PORT FOURCHON* NOT AVBL

$$

MSZ070-080>082-212000-
SOUTHERN MISSISSIPPI

CITY           SKY/WX    TMP DP  RH WIND       PRES   REMARKS
MCCOMB         CLOUDY    65  50  58 CALM      29.99F
GULFPORT       PTSUNNY   69  55  60 SE6       29.98F
BILOXI         PTSUNNY   69  56  62 S3        29.97F
PASCAGOULA     SUNNY     73  51  46 W7        29.98F
STENNIS ARPT*  PTSUNNY   66  57  72 SE3       29.99F

$$

COASTAL OBSERVATIONS
LAKE AND NEARSHORE STATIONS

STATION/POSITION TIME  TEMP    WIND        PRES    WAVE
                       AIR SEA DIR/SP/G            HT/PER
                 (UTC) (F)     (DEG/KT/KT) (MB)    (FT/S)
PASCAGOULA       1848   68     160/  7/ 10 1015.0
WAVELAND YACHT   1848   63 60  140/  2/  4 1015.3
GRAND ISLE       1848   71 66   90/  6/  8 1014.6
SOUTHWEST PASS   1848   74 64   70/  8/ 10 1014.6
NEW CANAL        1848   65 64   40/  7/  8 1014.8
SHELL BEACH      1848   66 64   40/  6/  7 1015.0

OFFSHORE STATIONS

STATION/POSITION TIME  TEMP    WIND        PRES    WAVE
                       AIR SEA DIR/SP/G            HT/PER
                 (UTC) (F)     (DEG/KT/KT) (MB)    (FT/S)
64 S DAUPHIN ISL 1850   71     360/  4/  6 1015.2    2/ 4

$$




USA.gov is the U.S. government's official web portal to all federal, state and local government web resources and services.